Find Local Weather

World > North America > United States > Florida

Naples, Florida Regional Weather

Lat: 26.14N, Lon: 81.8W
Wx Zone: FLZ069
Feedback
Expires:201804221500;;332767
ASUS42 KTBW 221417
RWRFL 
FLORIDA REGIONAL WEATHER ROUNDUP
NATIONAL WEATHER SERVICE TAMPA BAY RUSKIN FL
1000 AM EDT SUN APR 22 2018

NOTE: "FAIR" INDICATES FEW OR NO CLOUDS BELOW 12,000 FEET WITH NO
SIGNIFICANT WEATHER AND/OR OBSTRUCTIONS TO VISIBILITY.


FLZ066-069-070-075>078-162-262-165-265-221500-
SOUTHWEST FLORIDA AND KEYS
  
CITY           SKY/WX    TMP DP  RH WIND       PRES   REMARKS
PUNTA GORDA    FAIR      80  69  69 E14       30.12F                  
FT MYERS       PTSUNNY   80  72  76 E10       30.09S                  
SOUTHWEST INTL PTSUNNY   79  72  79 E13       30.10S                  
NAPLES         FAIR      80  73  79 E8        30.09R                  
MARCO ISLAND   PTSUNNY   80  72  76 E9        30.10R                  
IMMOKALEE      PTSUNNY   79  70  73 E10       30.11S                  
MARATHON       FAIR      84  72  67 SE10      30.07R                  
KEY WEST NAS   PTSUNNY   81  72  74 E10       30.07R                  
KEY WEST INTL  FAIR      81  74  79 E9        30.07R                  

STATION/POSITION SKY/WX   TEMP    WIND        PRES    WAVE   SWELL
                          AIR SEA DIR/SP/G            HT/PER HT/PER
                          (F)     (DEG/KT/KT) (MB)    (FT/S) (FT/S)
NAPLES                     78 78              1018.7R
26.0N   85.6W              78     120/ 16/ 19 1017.9
DRY TORTUGAS               77      90/  7/  8 1018.3R
SAND KEY                   77                 1018.0R
SOMBRERO KEY               78      80/ 10/ 12 1017.6R
LONG KEY                   79 80   90/ 11/ 12 1017.9R
MOLASSES REEF              79 79  130/ 14/ 16 1018.5

$$

SKY/WX - Weather  TMP - Temperature  DP - Dewpoint  RH - Relative Humidity
WIND - Wind Direction/Speed PRES - Barometric Pressure